Regional Weather Roundup
Issued by NWS

Home | Current Version | Previous Version | Text Only | Print | Product List | Glossary On
Versions: 1 2 3 4 5 6 7 8 9 10 11 12 13 14 15 16 17 18 19 20 21 22 23 24 25 26 27 28 29 30 31 32 33 34 35 36 37 38 39 40 41 42 43 44 45 46 47 48 49 50
000
ASUS44 KJAN 262010
RWRMS

MISSISSIPPI HOURLY WEATHER ROUNDUP
NATIONAL WEATHER SERVICE JACKSON MS
300 PM CDT SAT JUL 26 2014

NOTE: "FAIR: INDICATES FEW OR NO CLOUDS BELOW 12,000 FEET WITH NO
SIGNIFICANT WEATHER AND/OR OBSTRUCTIONS TO VISIBILITY.

MSZ001>002-007>008-010>013-018>021-025>028-034>036-262100-
NORTHWEST MISSISSIPPI

CITY           SKY/WX    TMP DP  RH WIND       PRES   REMARKS
CLARKSDALE     FAIR      91  77  62 SW10      29.99F HX 105
CLEVELAND      FAIR      91  77  63 SW6       29.99F HX 105
GREENWOOD      MOSUNNY   90  74  59 SW7       30.00F HX  99
GREENVILLE     SUNNY     94  74  52 W9        29.99F HX 104
GRENADA        FAIR      91  72  52 SW6       30.00F HX  98
OLIVE BRANCH   MOSUNNY   90  79  70 W9        29.98F HX 105
OXFORD         FAIR      88  73  62 W8        30.02F HX  96
TUNICA         PTCLDY    90  75  62 SW9       29.98F HX 100
$$

MSZ003>006-009-014>017-022>024-029>033-037>039-262100-
NORTHEAST MISSISSIPPI

CITY           SKY/WX    TMP DP  RH WIND       PRES   REMARKS
BELMONT        FAIR      87  74  64 CALM      30.02F HX  95
COLUMBUS AFB   MOSUNNY   91  72  54 W6        30.00F HX  98
CORINTH        FAIR      90  72  55 SW7       29.99F HX  96
GOLDN TRIANGLE MOSUNNY   91  72  52 SW5       30.02F HX  98
STARKVILLE     FAIR      90  72  55 S5        30.01F HX  96
TUPELO         MOSUNNY   91  74  57 VRB6      30.00F HX 100
$$

MSZ040-058-262100-
CENTRAL MISSISSIPPI

CITY           SKY/WX    TMP DP  RH WIND       PRES   REMARKS
JACKSON INTL   MOSUNNY   94  72  48 W6        30.01F HX 102
JACKSON HAWKNS MOSUNNY   93  71  48 W6        30.02F HX 100
MERIDIAN KEY   MOSUNNY   93  67  42 VRB7      30.01F HX  96
MERIDIAN NAS   MOSUNNY   94  68  42 W5        30.01F HX  98
RAYMOND        FAIR      93  88  84 SW3       30.02F HX 130
VICKSBURG      MOSUNNY   93  75  55 MISG      30.01F HX 104
$$

MSZ059>079-262100-
SOUTH MISSISSIPPI

CITY           SKY/WX    TMP DP  RH WIND       PRES   REMARKS
BROOKHAVEN     FAIR      91  75  59 S5        30.05F HX 102
COLUMBIA       FAIR      91  75  59 SW6       30.02F HX 102
HATTIESBURG    MOSUNNY   93  72  50 W6        30.03F HX 101
MCCOMB         SUNNY     90  72  55 CALM      30.04F HX  97
NATCHEZ        SUNNY     91  75  59 SW5       30.03F HX 102
PINE BELT      MOSUNNY   93  72  49 W7        30.05F HX 100
$$

MSZ080>082-262100-
COASTAL MISSISSIPPI

CITY           SKY/WX    TMP DP  RH WIND       PRES   REMARKS
BAY ST LOUIS   MOSUNNY  N/A N/A N/A CALM      30.03F
BILOXI         SUNNY     89  78  68 SW14      30.03F HX 103
PASCAGOULA     SUNNY     90  76  63 S10       30.04S HX 101
GULFPORT       SUNNY     93  76  57 S9G16     30.03F HX 105
$$


USA.gov is the U.S. government's official web portal to all federal, state and local government web resources and services.